{"data":{"norad_id":66214,"epoch":"2026-05-24T23:20:29.304960Z","epoch_age_seconds":78175,"freshness":"FRESH","line1":"1 66214U 25244J   26144.97256140  .00013668  00000+0  47263-3 0  9995","line2":"2 66214  53.1600 235.9509 0001277  77.0196 283.0947 15.30208037 33330","mean_motion":15.30208037,"eccentricity":0.0001277,"inclination_deg":53.16,"raan_deg":235.9509,"arg_perigee_deg":77.0196,"mean_anomaly_deg":283.0947,"bstar":0.00047263,"rev_number":3333,"period_min":94.104851443804,"perigee_km":474.31590249618,"apogee_km":476.06624248589,"semimajor_km":6853.328072491,"source":"CELESTRAK","updated_at":"2026-05-25T13:38:21.128154Z"}}